Regional Weather Roundup
Issued by NWS

Home | Current Version | Previous Version | Text Only | Print | Product List | Glossary Off
Versions: 1 2 3 4 5 6 7 8 9 10 11 12 13 14 15 16 17 18 19 20 21 22 23 24 25 26 27 28 29 30 31 32 33 34 35 36 37 38 39 40 41 42 43 44 45 46 47 48 49 50

000
ASUS45 KABQ 242001
RWRNM
NEW MEXICO REGIONAL WEATHER ROUNDUP
NATIONAL WEATHER SERVICE ALBUQUERQUE NM
200 PM MDT WED MAY 24 2017

NOTE: "FAIR" MEANS FEW OR NO CLOUDS BELOW 12,000 FEET AGL WITH NO
       SIGNIFICANT WEATHER OR OBSTRUCTIONS TO VISION.

      THIS PRODUCT IS RELEASED AS TWO VERSIONS.  ONE VERSION NEAR
      THE TOP OF THE HOUR CONTAINING PRELIMINARY DATA FROM ALBUQUERQUE
      AND OTHER STATIONS.  A FINAL VERSION WITH ADDITIONAL DATA IS
      ISSUED ABOUT 10 MINUTES AFTER THE HOUR.

NMZ501-503-504-510>518-242100-
NORTHWEST PLATEAU/NORTHCENTRAL MOUNTAINS

CITY           SKY/WX    TMP DP  RH WIND       PRES   REMARKS
FARMINGTON     FAIR      81  28  14 W16G26    29.90F
LOS ALAMOS     FAIR      74  30  19 N6        30.00F
SANTA FE       FAIR      81  31  16 W13G23    29.93F
TAOS           FAIR      75  28  17 NW23G32   29.95F
ANGEL FIRE     FAIR      64  32  30 W20G26    30.04F

$$
NMZ402-403-502-505>509-242100-
WESTCENTRAL MOUNTAINS/SOUTHWEST MOUNTAINS

CITY           SKY/WX    TMP DP  RH WIND       PRES   REMARKS
GALLUP         FAIR      81  26  13 SW14      30.01F
GRANTS         FAIR      81  20  10 W9G21     30.01F
SILVER CITY    FAIR      85  23  10 W22G30    29.99F

$$
NMZ407-409-411-412-242100-
SOUTHERN DESERTS

CITY           SKY/WX    TMP DP  RH WIND       PRES   REMARKS
DEMING         FAIR      91  22   8 SW14      29.91F
LAS CRUCES     FAIR      89  28  11 SW10G21   29.94F
HOLLOMAN AFB   FAIR      83  33  16 CALM      29.94F
ALAMOGORDO     FAIR      81  32  17 NW3       29.93F
T OR C         FAIR      87  31  13 S10G22    29.90F

$$
NMZ519>523-242100-
CENTRAL VALLEYS/CENTRAL HIGHLANDS

CITY           SKY/WX    TMP DP  RH WIND       PRES   REMARKS
ALBUQUERQUE    FAIR      82  28  14 W6        29.92F
DOUBLE EAGLE   SUNNY     82  34  17 W10G26    29.95
MORIARTY ARPT  FAIR      81  29  14 W24G30    29.97F
CLINES CORNERS FAIR      76  29  17 W25G38    29.99F
BELEN          FAIR      84  27  12 SE3       29.90F
SOCORRO        NOT AVBL

$$
NMZ524>526-539-540-242100-
SOUTHCENTRAL MOUNTAINS

CITY           SKY/WX    TMP DP  RH WIND       PRES   REMARKS
RUIDOSO        NOT AVBL

$$
NMZ527>531-242100-
NORTHEAST HIGHLANDS/NORTHEAST PLAINS

CITY           SKY/WX    TMP DP  RH WIND       PRES   REMARKS
LAS VEGAS      FAIR      79  31  17 SE8       29.91F
RATON          FAIR      76  36  23 S8        29.84F
CLAYTON        FAIR      77  37  23 SW13      29.79F

$$
NMZ532>537-242100-
EASTCENTRAL PLAINS

CITY           SKY/WX    TMP DP  RH WIND       PRES   REMARKS
SANTA ROSA     FAIR      86  32  14 W18G24    29.80F
TUCUMCARI      FAIR      82  35  18 S12       29.77F
CANNON AFB     FAIR      78  31  18 S5        29.84F
CLOVIS AIRPORT FAIR      79  34  19 W8        29.83F

$$
NMZ028-029-538-242100-
SOUTHEAST PLAINS

CITY           SKY/WX    TMP DP  RH WIND       PRES   REMARKS
ROSWELL        FAIR      86  33  15 S7        29.83
ARTESIA        FAIR      86  34  15 CALM      29.83F
CARLSBAD       FAIR      87  31  13 W9        29.81F
HOBBS          SUNNY     81  32  17 S16G23    29.87


$$



USA.gov is the U.S. government's official web portal to all federal, state and local government web resources and services.